Regional Weather Roundup
Issued by NWS

Home | Current Version | Previous Version | Graphics & Text | Print | Product List | Glossary On
Versions: 1 2 3 4 5 6 7 8 9 10 11 12 13 14 15 16 17 18 19 20 21 22 23 24 25 26 27 28 29 30 31 32 33 34 35 36 37 38 39 40 41 42 43 44 45 46 47 48 49 50
000
ASUS45 KBOI 180410
RWRID

IDAHO REGIONAL WEATHER ROUNDUP
NATIONAL WEATHER SERVICE BOISE ID
900 PM MST WED JAN 17 2018

NOTE: "FAIR" INDICATES FEW OR NO CLOUDS BELOW 12000 FEET
WITH NO SIGNIFICANT WEATHER AND/OR OBSTRUCTIONS TO VISIBILITY

IDZ012-014-180500-
SOUTHWEST IDAHO


CITY           SKY/WX    TMP DP  RH WIND       PRES   REMARKS
BOISE          CLOUDY    44  32  62 S6        30.17F
CALDWELL       CLOUDY    43  35  73 S3        30.19F
MOUNTAIN HOME  CLOUDY    42  38  87 SE16      30.20F
$$

IDZ016-017-180500-
SOUTHCENTRAL IDAHO


CITY           SKY/WX    TMP DP  RH WIND       PRES   REMARKS
BURLEY         MOCLDY    34  30  85 NE6       30.25S WCI  29
JEROME         MOCLDY    35  30  82 NE18      30.24F WCI  24
TWIN FALLS     MOCLDY    32  32 100 E7        30.24S WCI  26
$$

IDZ019>023-180500-
SOUTHEAST IDAHO


CITY           SKY/WX    TMP DP  RH WIND       PRES   REMARKS
IDAHO FALLS    MOCLDY    30  28  92 NW3       30.31F
POCATELLO      MOCLDY    32  29  88 NW6       30.30F WCI  26
REXBURG        CLOUDY    28  25  88 NE5       30.30F WCI  23
$$

IDZ006-010-011-018-031-032-180500-
CENTRAL IDAHO MOUNTAINS


CITY           SKY/WX    TMP DP  RH WIND       PRES   REMARKS
MCCALL         CLOUDY    30  28  92 NE3       30.16F
HAILEY         PTCLDY    30  27  86 NW6       30.30F WCI  24
STANLEY          N/A     19  16  88 CALM      30.24F
SALMON         PTCLDY    21  18  88 CALM      30.28F
CHALLIS        MOCLDY    24  21  88 CALM      30.26F
$$

IDZ002-004-006-007-026-180500-
NORTHERN IDAHO


CITY           SKY/WX    TMP DP  RH WIND       PRES   REMARKS
LEWISTON       CLOUDY    44  36  73 E7        29.96F
LOWELL           N/A     35  34  96 N7        30.11F WCI  29
COEUR D`ALENE  CLOUDY    35  32  88 N7        29.92F WCI  29
MULLAN PASS    MOCLDY    30  27  88 VRB6      29.95F WCI  24
$$



USA.gov is the U.S. government's official web portal to all federal, state and local government web resources and services.